User: anonymous   Login
Location: Baix
(44.7118°N, 4.7648°E)
Time: 11:38:52
(UTC+00:00)
Language:

NOSS 3-1 (A) - Orbit

View from above orbital plane
View from above orbital plane
View from above satellite
View from above satellite

Ground track
Ground track

The orbit data is extracted from the following two-line orbital elements,

1 26905U 01040A   20282.84289400 0.00000000  00000-0  00000-0 0    09
2 26905  63.4082 181.5587 0482523   1.0676 358.9324 13.40784189    05
Epoch (UTC): 08 October 2020 20:13:46
Eccentricity: 0.0482523
inclination: 63.4082°
perigee height: 745 km
apogee height: 1467 km
right ascension of ascending node: 181.5587°
argument of perigee: 1.0676°
revolutions per day: 13.40784189
mean anomaly at epoch: 358.9324°
orbit number at epoch: 0

The dashed part of the orbit path shows where the satellite is in the earth's shadow,  

DLR